STARLINK-3768

operational
NORAD ID: 52301 Int'l Des: 2022-041 Owner: SPXS Country: US Constellation: starlink
LEOCIRCULAR

STARLINK-3768について

説明を読み込み中...

リアルタイム位置

3D地球を読み込み中...

次回通過

高度履歴

Altitude vs Time

uPlot chart will show altitude changes over time

軌道要素

1 52301U 22041AS 25251.25090047 -.00000610 00000-0 -20239-4 0 9991
2 52301 53.2154 198.1199 0001385 87.4227 272.6923 15.08843360186967
Epoch: Sep 8, 2025 • Age: 10 hours

現在のステータス

高度 541.3 km
速度 7.59 km/s
衛星直下点 -3.89°S, 27.59°W
打ち上げ日 Apr 21, 2022
運用期間 3.3 years
タイプ internet

技術仕様

分類 Payload
質量 297.00 kg
乾燥質量 275.00 kg
総質量 297.00 kg
長さ 0.20 m
直径 2.80 m
スパン 9.00 m
形状 Box + pan
製造者 SPXS
バスタイプ Starlink
フェーズステータス In Orbit
所有者/国 SPXS/US

大規模コンステレーション

Loading constellations...